Starlink 11718

operational
NORAD ID: 64132 Int'l Des: 2025-111 Owner: SPXS Country: US Constellation: starlink
LEOCIRCULAR

About Starlink 11718

Description loading...

Live Position

Loading 3D Globe...

Upcoming Passes

Altitude History

Altitude vs Time

uPlot chart will show altitude changes over time

Two-Line Element Set

1 64132U 25111K 25260.54171519 .00289244 00000-0 21717-2 0 9993
2 64132 42.9987 297.8647 0002053 299.2714 60.7949 15.70931884 19454
Epoch: Sep 17, 2025 • Age: 36 hours

Current Status

Altitude 357.2 km
Velocity 7.70 km/s
Sub-Earth Point 38.69°N, 43.54°E
Launch Date May 24, 2025
Age 0.3 years
Type internet

Technical Details

Classification Payload
Mass 960.00 kg
Dry Mass 910.00 kg
Total Mass 960.00 kg
Length 0.30 m
Diameter 4.10 m
Span 29.00 m
Shape Box + pan
Manufacturer SPXS
Bus Type Starlink V2MD
Phase Status In Orbit
Owner/State SPXS/US

Large Constellations

Loading constellations...